Regional Weather Roundup
Issued by NWS

Home | Current Version | Previous Version | Text Only | Print | Product List | Glossary Off
Versions: 1 2 3 4 5 6 7 8 9 10 11 12 13 14 15 16 17 18 19 20 21 22 23 24 25 26 27 28 29 30 31 32 33 34 35 36 37 38 39 40 41 42 43 44 45 46 47 48 49 50

000
ASUS43 KLOT 230203
RWRIL

ILLINOIS REGIONAL WEATHER ROUNDUP
NATIONAL WEATHER SERVICE CHICAGO/ROMEOVILLE IL
900 PM CDT SUN APR 22 2018

NOTE: "FAIR" INDICATES FEW OR NO CLOUDS BELOW 12,000 FEET WITH NO
SIGNIFICANT WEATHER AND/OR OBSTRUCTIONS TO VISIBILITY.

* THESE STATIONS ARE NOT UNDER NWS QUALITY CONTROL. THEY ALSO MAY NOT
  REPORT WEATHER SUCH AS PRECIPITATION OR FOG.

ILZ001-002-007-009-015-016-024-230300-
NORTHWEST ILLINOIS

CITY           SKY/WX    TMP DP  RH WIND       PRES   REMARKS
MOLINE         CLOUDY    60  26  27 NE14      30.18S
STERLING*      FAIR      53  28  38 NE12      30.23R
SAVANNA*       FAIR      52  28  38 E8        30.24S
$$

ILZ003-004-008-010-011-017-018-230300-
NORTH CENTRAL ILLINOIS

CITY           SKY/WX    TMP DP  RH WIND       PRES   REMARKS
ROCKFORD       FAIR      51  26  37 NE7       30.27R
FREEPORT*      FAIR      47  28  47 E6        30.27S
ROCHELLE*      FAIR      49  29  46 NE9       30.25S
DE KALB*       FAIR      50  27  40 NE10      30.25S
PERU*          FAIR      57  29  34 NE10      30.21S
$$

ILZ005-006-012>014-019>023-230300-
NORTHEAST ILLINOIS

CITY           SKY/WX    TMP DP  RH WIND       PRES   REMARKS
CHICAGO-OHARE  MOCLDY    46  27  47 NE12      30.27R
CHICAGO-MIDWAY MOCLDY    48  29  47 NE10      30.27R
AURORA         FAIR      52  25  35 NE14      30.24R
LANSING*       FAIR      44  34  68 NE9       30.26S
JOLIET*        FAIR      53  29  38 NE9       30.23S
WAUKEGAN       FAIR      43  29  57 N8        30.28R
DUPAGE AIRPORT FAIR      50  26  39 NE12      30.25R
KANKAKEE*      FAIR      48  32  53 NE10      30.22S
WHEELING       FAIR      45  29  53 NE6       30.30R
MORRIS*        FAIR      51  30  44 NE6       30.22R
ROMEOVILLE*    FAIR      50  28  42 NE14G20   30.25R
NORTHERLY ISL    N/A     43  31  63 MISG        N/A
$$

LMZ740>746-230300-
SOUTHERN LAKE MICHIGAN

STATION/POSITION SKY/WX   TEMP    WIND        PRES    VSBY  WAVE
                          AIR SEA DIR/SP/G                  HT/PER
                          (F)     (DEG/KT/KT) (MB)    (MI)  (FT/S)
HARRISON CRIB              43     350/  7/  8   N/A
BURNHAM HARBOR             43     360/  7/ 12   N/A
CALUMET HARBOR             42     350/  8/ 10 1024.4R
BURNS HARBOR               42      60/ 11/ 13 1025.1S
MICHIGAN CITY              42      40/ 13/ 14   N/A
$$

ILZ025>027-034>036-040-047-049-050-058-095>099-230300-
WEST-CENTRAL ILLINOIS

CITY           SKY/WX    TMP DP  RH WIND       PRES   REMARKS
QUINCY         CLOUDY    58  29  33 NE10      30.11R
GALESBURG*     FAIR      61  32  33 NE16      30.17S
MACOMB*        PTCLDY    57  30  36 NE10      30.17R
JACKSONVILLE*  CLOUDY    60  30  31 NE13      30.10S
PITTSFIELD*    CLOUDY    63  32  31 NE9       30.11R
$$

ILZ028>032-037-038-041>044-048-051>054-059>061-230300-
CENTRAL ILLINOIS

CITY           SKY/WX    TMP DP  RH WIND       PRES   REMARKS
PONTIAC        FAIR      53  31  44 NE17      30.20S
BLOOMINGTON    FAIR      52  33  48 E12       30.17S
DECATUR        FAIR      59  33  37 E15       30.12S
PEORIA         FAIR      59  31  34 NE14      30.16R
LACON*         FAIR      56  28  34 NE12      30.18S
LINCOLN*       FAIR      57  35  42 NE10      30.14S
SPRINGFIELD    FAIR      60  32  34 E13       30.11R
TAYLORVILLE    CLOUDY    62  32  33 E12       30.10S
$$

ILZ033-039-045-046-055>057-062-063-230300-
EAST-CENTRAL ILLINOIS

CITY           SKY/WX    TMP DP  RH WIND       PRES   REMARKS
CHAMPAIGN      FAIR      56  33  42 NE10      30.15R
DANVILLE*      FAIR      57  32  38 E10       30.14S
RANTOUL*       FAIR      58  34  41 E10       30.16S
MATTOON        CLOUDY    61  32  33 E10       30.10S
PARIS*         FAIR      58  36  43 NE12      30.14F
$$

ILZ079-100>102-230300-
SOUTHWEST ILLINOIS

CITY           SKY/WX    TMP DP  RH WIND       PRES   REMARKS
ALTON          DRIZZLE   59  46  63 E17G23    30.06R
BELLEVILLE     DRIZZLE   59  52  77 E8        30.03S
CAHOKIA*       CLOUDY    59  49  69 E9        30.03S
SPARTA*        LGT RAIN  56  56 100 E17       30.02S
$$

ILZ064>066-069>071-074>076-080>082-084>086-088>090-092>094-230300-
SOUTH-CENTRAL ILLINOIS

CITY           SKY/WX    TMP DP  RH WIND       PRES   REMARKS
CARBONDALE     LGT RAIN  57  55  93 E12       29.99R
CAIRO*         LGT RAIN  57  57  97 NE12      29.94S
EFFINGHAM*     CLOUDY    60  42  51 NE5       30.10S
MARION         DRIZZLE   57  56  98 E12G20    30.01S
MT. VERNON     LGT RAIN  57  54  89 NE9       30.05S
CENTRALIA*     CLOUDY    59  55  88 E12       30.05S
SALEM*         CLOUDY    61  52  72 E5        30.07S
METROPOLIS*    LGT RAIN  58  56  94 E7        29.97S
$$

ILZ067-068-072-073-078-083-087-091-230300-
SOUTHEAST ILLINOIS

CITY           SKY/WX    TMP DP  RH WIND       PRES   REMARKS
LAWRENCEVILLE  CLOUDY    61  46  57 NE10      30.08F
FLORA*         CLOUDY    62  47  56 E9        30.07S
FAIRFIELD*     CLOUDY    56  55  97 CALM      30.05R
HARRISBURG*    RAIN      57  56  97 E16       30.03R
ROBINSON*      CLOUDY    60  35  39 E10       30.10S
CARMI*         CLOUDY    57  55  91 E8        30.04R
$$

ABBREVIATIONS USED IN REMARKS
   TC - TEMPERATURE IN CELSIUS
  WCI - WIND CHILL INDEX
   HX - HEAT INDEX
  VSB - VISIBILITY
$$





USA.gov is the U.S. government's official web portal to all federal, state and local government web resources and services.